When you browse on this site, cookies collect data to enhance your experience and personalize the content and advertising you see.
Visit our Privacy Policy to learn more. By continuing to use the site, you agree to this use of cookies and data.
  • In Slovakia
  • List of Countries
  • For 7 days
  • Water Temperature
  • Satellite Maps
  • Weather Map
  • Weather Widgets
  • user-avatar
    Login

    Hourly Weather Brasília

    Today, 17 December, Monday

    Time Temperature Precipitation Wind Pressure Humidity
    00:00 +20°C° 0 mm 2 mps 667 mmHg 79%
    01:00 +19°C° 0 mm 2 mps 667 mmHg 82%
    02:00 +19°C° 0 mm 2 mps 667 mmHg 84%
    03:00 +19°C° 0 mm 2 mps 667 mmHg 87%
    04:00 +18°C° 0 mm 2 mps 667 mmHg 88%
    05:00 +19°C° 0 mm 1 mps 667 mmHg 90%
    06:00 +19°C° 0 mm 1 mps 667 mmHg 91%
    07:00 +20°C° 0 mm 2 mps 668 mmHg 82%
    08:00 +22°C° 0 mm 3 mps 668 mmHg 72%
    09:00 +25°C° 0 mm 3 mps 669 mmHg 62%
    10:00 +26°C° 0 mm 3 mps 669 mmHg 58%
    11:00 +28°C° 0 mm 3 mps 669 mmHg 54%
    12:00 +29°C° 0 mm 3 mps 670 mmHg 49%
    13:00 +29°C° 0 mm 3 mps 669 mmHg 48%
    14:00 +29°C° 0 mm 2 mps 669 mmHg 47%
    15:00 +29°C° 0 mm 2 mps 668 mmHg 46%
    16:00 +28°C° 0.1 mm 2 mps 668 mmHg 53%
    17:00 +27°C° 0.1 mm 2 mps 667 mmHg 60%
    18:00 +26°C° 0.1 mm 2 mps 667 mmHg 66%
    19:00 +24°C° 0.1 mm 2 mps 667 mmHg 71%
    20:00 +23°C° 0.1 mm 2 mps 667 mmHg 75%
    21:00 +21°C° 0.1 mm 2 mps 667 mmHg 79%
    22:00 +21°C° 0.1 mm 2 mps 667 mmHg 80%
    23:00 +20°C° 0.1 mm 2 mps 667 mmHg 81%

    Tomorrow, 18 December, Tuesday

    Time Temperature Precipitation Wind Pressure Humidity
    00:00 +20°C° 0.1 mm 2 mps 667 mmHg 83%
    01:00 +20°C° 0 mm 2 mps 667 mmHg 85%
    02:00 +19°C° 0 mm 2 mps 667 mmHg 86%
    03:00 +19°C° 0 mm 2 mps 666 mmHg 88%
    04:00 +19°C° 0 mm 2 mps 666 mmHg 89%
    05:00 +19°C° 0 mm 2 mps 667 mmHg 89%
    06:00 +19°C° 0 mm 2 mps 667 mmHg 90%
    07:00 +21°C° 0 mm 2 mps 668 mmHg 82%
    08:00 +23°C° 0 mm 2 mps 669 mmHg 75%
    09:00 +25°C° 0 mm 3 mps 669 mmHg 67%
    10:00 +26°C° 0.3 mm 3 mps 670 mmHg 63%
    11:00 +28°C° 0.3 mm 2 mps 670 mmHg 59%
    12:00 +29°C° 0.3 mm 2 mps 670 mmHg 55%
    13:00 +29°C° 0.5 mm 2 mps 669 mmHg 55%
    14:00 +29°C° 0.5 mm 2 mps 668 mmHg 55%
    15:00 +29°C° 0.5 mm 1 mps 668 mmHg 56%
    16:00 +28°C° 0.2 mm 1 mps 667 mmHg 61%
    17:00 +27°C° 0.2 mm 1 mps 667 mmHg 66%
    18:00 +26°C° 0.2 mm 1 mps 667 mmHg 71%
    19:00 +25°C° 0.3 mm 1 mps 667 mmHg 74%
    20:00 +23°C° 0.3 mm 1 mps 667 mmHg 77%
    21:00 +22°C° 0.3 mm 1 mps 667 mmHg 80%
    22:00 +22°C° 0.2 mm 1 mps 667 mmHg 81%
    23:00 +22°C° 0.2 mm 1 mps 667 mmHg 82%

    Day after tomorrow, 19 December, Wednesday

    Time Temperature Precipitation Wind Pressure Humidity
    00:00 +21°C° 0.2 mm 1 mps 667 mmHg 83%
    01:00 +21°C° 0 mm 1 mps 667 mmHg 84%
    02:00 +21°C° 0 mm 1 mps 667 mmHg 84%
    03:00 +19°C° 0 mm 2 mps 666 mmHg 85%
    04:00 +20°C° 0 mm 1 mps 666 mmHg 85%
    05:00 +20°C° 0 mm 1 mps 666 mmHg 86%
    06:00 +20°C° 0 mm 1 mps 666 mmHg 86%
    07:00 +21°C° 0 mm 2 mps 667 mmHg 78%
    08:00 +24°C° 0 mm 2 mps 668 mmHg 70%
    09:00 +26°C° 0 mm 2 mps 669 mmHg 63%
    10:00 +27°C° 0.1 mm 2 mps 669 mmHg 57%
    11:00 +29°C° 0.1 mm 2 mps 669 mmHg 52%
    12:00 +30°C° 0.1 mm 2 mps 669 mmHg 47%
    13:00 +30°C° 0 mm 2 mps 668 mmHg 47%
    14:00 +30°C° 0 mm 1 mps 667 mmHg 47%
    15:00 +30°C° 0 mm 1 mps 666 mmHg 48%
    16:00 +29°C° 0 mm 1 mps 666 mmHg 53%
    17:00 +28°C° 0 mm 1 mps 666 mmHg 58%
    18:00 +27°C° 0 mm 1 mps 665 mmHg 63%
    19:00 +25°C° 0 mm 1 mps 665 mmHg 66%
    20:00 +24°C° 0 mm 1 mps 666 mmHg 69%
    21:00 +23°C° 0 mm 1 mps 666 mmHg 71%
    22:00 +23°C° 0.1 mm 1 mps 666 mmHg 73%
    23:00 +20°C° 0.1 mm 0 mps 666 mmHg 75%

    20 December, Thursday

    Time Temperature Precipitation Wind Pressure Humidity
    00:00 +20°C° 0.1 mm 0 mps 666 mmHg 77%
    01:00 +19°C° 0.1 mm 0 mps 665 mmHg 78%
    02:00 +19°C° 0.1 mm 0 mps 665 mmHg 79%
    03:00 +21°C° 0.1 mm 1 mps 664 mmHg 80%
    04:00 +21°C° 0.1 mm 1 mps 665 mmHg 80%
    05:00 +20°C° 0.1 mm 1 mps 665 mmHg 81%
    06:00 +20°C° 0.1 mm 1 mps 665 mmHg 82%
    07:00 +22°C° 0 mm 1 mps 666 mmHg 75%
    08:00 +24°C° 0 mm 1 mps 667 mmHg 68%
    09:00 +26°C° 0 mm 1 mps 668 mmHg 61%
    10:00 +28°C° 0 mm 1 mps 668 mmHg 55%
    11:00 +29°C° 0 mm 2 mps 668 mmHg 49%
    12:00 +30°C° 0 mm 2 mps 668 mmHg 43%
    13:00 +30°C° 0 mm 2 mps 667 mmHg 44%
    14:00 +30°C° 0 mm 1 mps 667 mmHg 45%
    15:00 +30°C° 0 mm 1 mps 666 mmHg 46%
    16:00 +29°C° 0 mm 1 mps 666 mmHg 51%
    17:00 +28°C° 0 mm 1 mps 665 mmHg 55%
    18:00 +27°C° 0 mm 1 mps 665 mmHg 60%
    19:00 +26°C° 0 mm 1 mps 665 mmHg 63%
    20:00 +25°C° 0 mm 1 mps 665 mmHg 66%
    21:00 +23°C° 0 mm 1 mps 666 mmHg 69%
    22:00 +23°C° 0 mm 1 mps 665 mmHg 70%
    23:00 +23°C° 0 mm 1 mps 665 mmHg 72%

    21 December, Friday

    Time Temperature Precipitation Wind Pressure Humidity
    00:00 +22°C° 0 mm 1 mps 665 mmHg 73%
    01:00 +22°C° 0 mm 1 mps 665 mmHg 74%
    02:00 +22°C° 0 mm 1 mps 665 mmHg 74%
    03:00 +21°C° 0 mm 1 mps 664 mmHg 74%
    04:00 +21°C° 0 mm 1 mps 665 mmHg 75%
    05:00 +21°C° 0 mm 1 mps 665 mmHg 76%
    06:00 +21°C° 0 mm 1 mps 665 mmHg 76%
    07:00 +23°C° 0 mm 1 mps 666 mmHg 70%
    08:00 +25°C° 0 mm 1 mps 667 mmHg 64%
    09:00 +27°C° 0 mm 1 mps 667 mmHg 58%
    10:00 +28°C° 0.2 mm 1 mps 667 mmHg 54%
    11:00 +29°C° 0.2 mm 1 mps 667 mmHg 50%
    12:00 +31°C° 0.2 mm 2 mps 667 mmHg 46%
    13:00 +30°C° 0.4 mm 2 mps 667 mmHg 49%
    14:00 +29°C° 0.4 mm 2 mps 666 mmHg 53%
    15:00 +28°C° 0.4 mm 1 mps 665 mmHg 56%
    16:00 +27°C° 0.2 mm 2 mps 665 mmHg 62%
    17:00 +26°C° 0.2 mm 2 mps 665 mmHg 68%
    18:00 +25°C° 0.2 mm 2 mps 665 mmHg 73%
    19:00 +24°C° 0.1 mm 2 mps 665 mmHg 75%
    20:00 +23°C° 0.1 mm 1 mps 665 mmHg 76%
    21:00 +22°C° 0.1 mm 1 mps 665 mmHg 78%
    22:00 +22°C° 0.3 mm 1 mps 665 mmHg 79%
    23:00 +22°C° 0.3 mm 1 mps 665 mmHg 81%

    22 December, Saturday

    Time Temperature Precipitation Wind Pressure Humidity
    00:00 +21°C° 0.3 mm 1 mps 665 mmHg 82%
    01:00 +21°C° 1.1 mm 1 mps 665 mmHg 85%
    02:00 +20°C° 1.1 mm 1 mps 664 mmHg 88%
    03:00 +20°C° 1.1 mm 1 mps 664 mmHg 91%
    04:00 +20°C° 1.1 mm 1 mps 664 mmHg 91%
    05:00 +20°C° 1.1 mm 1 mps 665 mmHg 91%
    06:00 +20°C° 1.1 mm 1 mps 665 mmHg 90%
    07:00 +21°C° 1.1 mm 1 mps 665 mmHg 90%
    08:00 +21°C° 1.1 mm 1 mps 666 mmHg 89%
    09:00 +21°C° 1.1 mm 1 mps 666 mmHg 88%
    10:00 +22°C° 0.4 mm 1 mps 666 mmHg 83%
    11:00 +24°C° 0.4 mm 1 mps 667 mmHg 77%
    12:00 +25°C° 0.4 mm 1 mps 667 mmHg 72%
    13:00 +25°C° 0.3 mm 1 mps 666 mmHg 72%
    14:00 +25°C° 0.3 mm 1 mps 666 mmHg 73%
    15:00 +24°C° 0.3 mm 1 mps 665 mmHg 73%
    16:00 +24°C° 0 mm 1 mps 665 mmHg 74%
    17:00 +23°C° 0 mm 1 mps 665 mmHg 75%
    18:00 +23°C° 0 mm 1 mps 665 mmHg 76%
    19:00 +22°C° 0 mm 1 mps 665 mmHg 76%
    20:00 +21°C° 0 mm 1 mps 664 mmHg 76%
    21:00 +20°C° 0 mm 1 mps 664 mmHg 76%
    22:00 +19°C° 0 mm 1 mps 664 mmHg 75%
    23:00 +19°C° 0 mm 1 mps 664 mmHg 74%
    Show more